[[{"header":{"parameterUnit":"m.s-1","parameterCategory":1,"la1":30.2991,"la2":30.254,"lo1":-89.0895,"lo2":-89.0444,"dy":0.0017,"dx":0.0017,"nx":28,"ny":28,"refTime":"2025-06-01T09:00:00:Z","depth":0,"parameterNumber":2,"parameterNumberName":"U-component_of_WINDS"},"data":[0,0,0,0,0,0,0,0,0,0,0,0,0,0,0,0,0,0,0,0,0,0,0,0,0,0,0,0,0,0,0,0,0,0,0,0,0,0,0,0,0,0,0,0,0,0,0,0,0,0,0,0,0,0,0,0,0,0,2.6996,2.6998,0,2.7153,2.7155,2.7157,2.7089,2.7085,2.7081,2.7078,2.7242,2.725,2.7258,0,0,0,0,0,0,0,0,0,0,0,0,0,2.6642,2.6649,2.6996,2.6998,2.7,2.7153,2.7155,2.7157,2.709,2.7085,2.708,2.7076,2.7239,2.7249,2.7258,0,0,0,0,0,0,0,0,0,0,0,0,0,2.6797,2.6651,2.6996,2.6985,2.6985,2.7152,2.7155,2.7158,2.7091,2.7085,2.7079,2.7074,2.7236,2.7248,2.726,2.7448,0,0,2.7296,2.7301,0,0,0,0,0,0,0,0,2.6788,2.681,2.6985,2.6986,2.6987,2.7095,2.709,2.7255,2.7092,2.7051,2.7078,2.7071,2.7198,2.7213,2.7255,2.7456,2.7463,2.7297,2.7304,2.7309,2.7313,0,0,0,0,0,0,0,2.6778,2.6803,2.7058,2.6987,2.6989,2.6973,2.6989,2.7121,2.7155,2.7054,2.7049,2.7069,2.7198,2.7244,2.7258,2.7465,2.7297,2.7307,2.7315,2.7319,2.7828,2.7834,0,0,0,0,0,0,2.6766,2.6794,2.7053,2.7063,2.6871,2.6984,2.7002,2.7067,2.7153,2.7161,2.7073,2.7065,2.7226,2.7245,2.7264,2.749,2.7309,2.7321,2.7327,2.7822,2.7829,2.7836,0,0,0,0,0,0,2.6759,2.679,2.7047,2.6928,2.6959,2.6996,2.707,2.7073,2.7118,2.7168,2.7174,2.7114,2.7222,2.7247,2.7402,2.7495,2.7326,2.7337,2.7814,2.7824,2.7833,2.7944,0,0,0,0,0,0,2.6749,2.6788,2.6859,2.693,2.6966,2.7182,2.7075,2.708,2.7139,2.7129,2.7207,2.7215,2.722,2.7385,2.7414,2.7508,2.7346,2.7806,2.7818,2.783,2.7932,2.7956,2.7976,0,0,0,0,0,2.6737,2.6885,2.6863,2.6895,2.7055,2.7188,2.7209,2.721,2.7146,2.7219,2.725,2.7213,2.748,2.7401,2.7434,2.7533,2.78,2.7815,2.7829,2.7922,2.7951,2.7976,0,0,0,0,0,0,2.6826,2.6894,2.6871,2.7046,2.7111,2.7176,2.7267,2.7241,2.7327,2.7314,2.7313,2.7332,2.7492,2.7528,2.7439,2.7719,2.763,2.7652,2.769,2.7718,2.774,2.7728,2.7356,0,0,0,0,0,2.6866,2.6966,2.7021,2.7171,2.7204,2.7231,2.7288,2.7283,2.7352,2.738,2.7423,2.7491,2.7591,2.7656,2.775,2.7936,2.7953,2.802,2.8042,2.806,2.8079,2.818,2.8211,2.7883,2.7883,2.7883,0,0,2.695,2.6999,2.7063,2.719,2.724,2.7345,2.7254,2.737,2.7448,2.7398,2.7546,2.758,2.7657,2.7828,2.7906,2.7863,2.8173,2.8079,2.8092,2.8102,2.8198,2.8229,2.8256,2.7893,2.7891,2.789,0,0,2.7156,2.7204,2.7333,2.7385,2.7462,2.7478,2.7509,2.7578,2.7598,2.7747,2.7711,2.7805,2.7976,2.8032,2.8083,2.831,2.8278,2.8341,2.8457,2.8555,2.8581,2.8604,2.8685,2.8714,2.8359,2.8359,2.836,0,2.7251,2.7407,2.7404,2.7522,2.7579,2.7536,2.7668,2.7718,2.7823,2.7863,2.7813,2.8027,2.8075,2.8259,2.8314,2.8357,2.8393,2.8332,2.8577,2.86,2.8621,2.8699,2.8729,2.8366,2.8366,2.8365,2.8364,0,2.752,2.7629,2.7725,2.7825,2.7892,2.8017,2.8033,2.8102,2.8091,2.8113,2.8265,2.8322,2.8427,2.847,2.8461,2.8653,2.8623,2.8576,2.8486,2.866,2.8732,2.8762,2.8377,2.8374,2.8372,2.837,0,0,2.7789,2.7884,2.7919,2.7964,2.8045,2.8129,2.8252,2.8353,2.8412,2.8485,2.8588,2.8734,2.8689,2.8747,2.8744,2.8831,2.9007,2.8772,2.8774,2.8814,2.9222,2.9257,2.9292,2.8986,2.8992,2.8996,2.9215,0,2.8001,2.8214,2.8215,2.8412,2.8513,2.8473,2.858,2.8642,2.8665,2.8755,2.8781,2.8884,2.8818,2.8852,2.8936,2.8968,2.9089,2.8952,2.9083,2.9088,2.9065,2.933,2.9368,2.9572,2.9244,2.9248,2.9252,0,2.8278,2.8358,2.8566,2.8631,2.8673,2.8769,2.8861,2.8947,2.9016,2.9027,2.9092,2.9075,2.9201,2.9107,2.9281,2.9188,2.9241,2.9265,2.9273,2.9286,2.9181,2.935,2.9637,2.9668,2.9297,2.9293,2.929,0,2.8453,2.8613,2.8758,2.8797,2.8877,2.8945,2.8982,2.9046,2.9106,2.9187,2.9226,2.9322,2.9374,2.9449,2.9459,2.939,2.9633,2.9541,2.9647,2.9647,2.97,2.9697,3.0,2.9735,2.9734,2.9733,2.9733,0,2.8691,2.8819,2.8837,2.8926,2.9069,2.9068,2.9209,2.924,2.9297,2.9392,2.9364,2.9454,2.9462,2.9554,2.9563,2.9706,2.973,2.9743,2.9743,2.9745,2.9744,2.9781,2.9767,2.9742,2.974,2.9738,2.9737,0,2.8911,2.8928,2.9083,2.9145,2.9164,2.9266,2.932,2.9406,2.9426,2.9546,2.9574,2.9607,2.9714,2.9731,2.9859,2.9864,3.0035,3.0021,3.0011,3.0009,3.0114,3.0104,3.0453,3.0499,3.0203,3.0205,3.0208,0,2.9062,2.9159,2.9232,2.9292,2.9332,2.9431,2.9492,2.9495,2.956,2.9646,2.9721,2.9825,2.9909,3.0083,3.0118,3.0215,3.0204,3.0319,3.0218,3.0217,3.0206,3.02,3.021,3.0339,3.0342,3.0345,3.0347,0,2.9328,2.9331,2.9419,2.9511,2.9584,2.9657,2.9726,2.9777,2.9789,2.9864,2.9973,3.0037,3.0166,3.027,3.0366,3.0405,3.0379,3.0378,3.0408,3.0411,3.0401,3.0408,3.0064,3.037,3.0368,3.0366,3.0365,3.0364,2.9518,2.9603,2.9667,2.9766,2.9817,2.9882,2.9965,2.9995,3.0085,3.0189,3.0185,3.0305,3.0372,3.0497,3.0543,3.0637,3.06,3.0643,3.0654,3.0664,3.0675,3.0386,3.0654,3.0654,3.0653,3.0653,3.0652,0,2.9783,2.9822,2.9913,3.0009,3.0087,3.0053,3.0127,3.0195,3.0301,3.0364,3.0446,3.0572,3.0672,3.0715,3.0814,3.0882,3.0872,3.0908,3.0903,3.0912,3.0702,3.0667,3.0914,3.0914,3.0914,3.0914,3.0913,3.0913,2.993,3.0071,3.0082,3.0248,3.0286,3.0402,3.0447,3.0507,3.0557,3.0698,3.078,3.0807,3.0863,3.0965,3.1056,3.1066,3.1105,3.1146,3.1151,3.0954,3.0927,3.0902,3.0868,3.1154,3.1154,3.1353,3.1355,3.1356]},{"header":{"parameterUnit":"m.s-1","parameterCategory":1,"la1":30.2991,"la2":30.254,"lo1":-89.0895,"lo2":-89.0444,"dy":0.0017,"dx":0.0017,"nx":28,"ny":28,"refTime":"2025-06-01T09:00:00:Z","depth":0,"parameterNumber":3,"parameterNumberName":"V-component_of_WINDS"},"data":[0,0,0,0,0,0,0,0,0,0,0,0,0,0,0,0,0,0,0,0,0,0,0,0,0,0,0,0,0,0,0,0,0,0,0,0,0,0,0,0,0,0,0,0,0,0,0,0,0,0,0,0,0,0,0,0,0,0,-0.8593,-0.8592,0,-0.851,-0.8509,-0.8508,-0.8528,-0.853,-0.8532,-0.8533,-0.8438,-0.8434,-0.843,0,0,0,0,0,0,0,0,0,0,0,0,0,-0.8762,-0.8759,-0.8593,-0.8592,-0.8591,-0.851,-0.8509,-0.8507,-0.8528,-0.853,-0.8532,-0.8534,-0.8439,-0.8435,-0.843,0,0,0,0,0,0,0,0,0,0,0,0,0,-0.8684,-0.8758,-0.8593,-0.8592,-0.8591,-0.851,-0.8509,-0.8507,-0.8528,-0.853,-0.8533,-0.8535,-0.8441,-0.8435,-0.8429,-0.8341,0,0,-0.841,-0.8408,0,0,0,0,0,0,0,0,-0.8689,-0.8678,-0.8593,-0.8592,-0.8591,-0.8532,-0.8533,-0.8451,-0.8527,-0.8551,-0.8533,-0.8536,-0.8467,-0.8459,-0.8437,-0.8337,-0.8333,-0.841,-0.8406,-0.8403,-0.8402,0,0,0,0,0,0,0,-0.8694,-0.8682,-0.856,-0.8592,-0.859,-0.8592,-0.8584,-0.8518,-0.8496,-0.8549,-0.8551,-0.8541,-0.8466,-0.8443,-0.8435,-0.8332,-0.841,-0.8404,-0.8401,-0.8398,-0.8154,-0.8151,0,0,0,0,0,0,-0.8702,-0.8686,-0.8563,-0.8557,-0.8647,-0.8587,-0.8578,-0.8548,-0.8497,-0.8491,-0.8539,-0.8542,-0.8452,-0.8442,-0.8432,-0.8325,-0.8403,-0.8398,-0.8394,-0.8157,-0.8153,-0.815,0,0,0,0,0,0,-0.8705,-0.869,-0.8566,-0.8622,-0.8606,-0.8582,-0.8548,-0.8545,-0.8522,-0.8489,-0.8484,-0.852,-0.8454,-0.844,-0.8364,-0.8322,-0.8395,-0.8389,-0.816,-0.8156,-0.8152,-0.8111,0,0,0,0,0,0,-0.871,-0.8692,-0.866,-0.8621,-0.8603,-0.8502,-0.8546,-0.8542,-0.8513,-0.8516,-0.847,-0.8464,-0.8455,-0.8373,-0.8358,-0.8315,-0.8385,-0.8164,-0.8158,-0.8153,-0.8116,-0.8106,-0.8097,0,0,0,0,0,-0.8716,-0.865,-0.8658,-0.8643,-0.8564,-0.85,-0.8489,-0.8482,-0.8509,-0.8476,-0.8455,-0.8466,-0.833,-0.8365,-0.8348,-0.8302,-0.8166,-0.816,-0.8154,-0.812,-0.8108,-0.8097,0,0,0,0,0,0,-0.868,-0.8645,-0.8654,-0.8574,-0.854,-0.8504,-0.8461,-0.847,-0.8425,-0.843,-0.8421,-0.841,-0.8332,-0.831,-0.835,-0.8215,-0.8251,-0.8241,-0.8231,-0.822,-0.821,-0.8216,-0.838,0,0,0,0,0,-0.8664,-0.8618,-0.8588,-0.852,-0.8503,-0.8485,-0.8457,-0.8455,-0.8418,-0.8403,-0.8376,-0.8338,-0.8286,-0.8252,-0.8203,-0.8114,-0.8102,-0.8074,-0.8064,-0.8057,-0.8047,-0.7997,-0.7983,-0.8129,-0.813,-0.813,0,0,-0.8628,-0.8603,-0.8574,-0.8513,-0.8486,-0.8436,-0.8473,-0.8418,-0.8379,-0.8394,-0.8321,-0.83,-0.8256,-0.8172,-0.8134,-0.8151,-0.8005,-0.8049,-0.8043,-0.8037,-0.7989,-0.7975,-0.7963,-0.8125,-0.8126,-0.8127,0,0,-0.8537,-0.8515,-0.8455,-0.8429,-0.839,-0.8379,-0.8364,-0.8327,-0.8314,-0.8242,-0.8251,-0.8204,-0.8116,-0.8084,-0.8056,-0.7954,-0.7962,-0.7939,-0.7888,-0.7839,-0.7828,-0.7817,-0.7779,-0.7765,-0.793,-0.793,-0.793,0,-0.8496,-0.8424,-0.8423,-0.8367,-0.8339,-0.8354,-0.8292,-0.8266,-0.8211,-0.8189,-0.8211,-0.8101,-0.8072,-0.7981,-0.7957,-0.7934,-0.7915,-0.7942,-0.783,-0.782,-0.781,-0.7773,-0.7759,-0.7927,-0.7927,-0.7927,-0.7928,0,-0.8375,-0.8324,-0.828,-0.8231,-0.8198,-0.8139,-0.8127,-0.8093,-0.8095,-0.808,-0.8005,-0.7972,-0.7916,-0.7895,-0.7894,-0.7803,-0.7814,-0.7833,-0.7869,-0.7793,-0.7758,-0.7744,-0.7923,-0.7924,-0.7925,-0.7925,0,0,-0.8256,-0.8209,-0.8192,-0.817,-0.8129,-0.8088,-0.8029,-0.7978,-0.7948,-0.791,-0.7859,-0.7785,-0.7802,-0.777,-0.7767,-0.7724,-0.7643,-0.7748,-0.7746,-0.7727,-0.7538,-0.7522,-0.7506,-0.7649,-0.7647,-0.7645,-0.7541,0,-0.8159,-0.806,-0.8057,-0.7964,-0.7916,-0.793,-0.7879,-0.7846,-0.7832,-0.7786,-0.7769,-0.7716,-0.7744,-0.7725,-0.7684,-0.7662,-0.7604,-0.767,-0.7598,-0.7595,-0.7606,-0.7488,-0.7471,-0.7375,-0.7527,-0.7525,-0.7523,0,-0.8032,-0.7994,-0.7897,-0.7863,-0.7843,-0.7797,-0.7749,-0.7707,-0.767,-0.7662,-0.7628,-0.7631,-0.7568,-0.7609,-0.752,-0.7565,-0.7536,-0.752,-0.7516,-0.7507,-0.7553,-0.7473,-0.7344,-0.7329,-0.7502,-0.7504,-0.7505,0,-0.7953,-0.7877,-0.7809,-0.7789,-0.7748,-0.7715,-0.7696,-0.7662,-0.7631,-0.7589,-0.7568,-0.7518,-0.749,-0.745,-0.7438,-0.7469,-0.7349,-0.7389,-0.7338,-0.7338,-0.7309,-0.731,-0.7171,-0.7295,-0.7295,-0.7295,-0.7296,0,-0.7843,-0.7783,-0.7773,-0.773,-0.7662,-0.766,-0.7592,-0.7575,-0.7544,-0.7496,-0.7505,-0.746,-0.7449,-0.74,-0.739,-0.7318,-0.7305,-0.7295,-0.7292,-0.7292,-0.7293,-0.7271,-0.7276,-0.7291,-0.7292,-0.7293,-0.7294,0,-0.7742,-0.7733,-0.7659,-0.7628,-0.7619,-0.7569,-0.7541,-0.7499,-0.7487,-0.7426,-0.7412,-0.7391,-0.7334,-0.732,-0.7251,-0.7245,-0.7158,-0.7163,-0.7171,-0.717,-0.7119,-0.7123,-0.6958,-0.6935,-0.7076,-0.7075,-0.7074,0,-0.7671,-0.7625,-0.759,-0.7561,-0.7541,-0.7493,-0.7462,-0.7458,-0.7425,-0.738,-0.7343,-0.7289,-0.7244,-0.7153,-0.713,-0.7077,-0.7079,-0.7025,-0.7071,-0.7072,-0.7075,-0.7077,-0.7071,-0.7015,-0.7014,-0.7013,-0.7012,0,-0.7546,-0.7545,-0.7502,-0.7458,-0.7422,-0.7386,-0.7352,-0.7326,-0.7317,-0.7279,-0.7224,-0.719,-0.7122,-0.7066,-0.7014,-0.6991,-0.6998,-0.6998,-0.6983,-0.6981,-0.6987,-0.698,-0.7145,-0.7001,-0.7002,-0.7003,-0.7003,-0.7004,-0.7456,-0.7416,-0.7385,-0.7337,-0.7311,-0.7279,-0.7238,-0.7222,-0.7177,-0.7123,-0.7123,-0.7062,-0.7025,-0.6955,-0.693,-0.6879,-0.6895,-0.6874,-0.6868,-0.6862,-0.6856,-0.6998,-0.687,-0.687,-0.6871,-0.6871,-0.6871,0,-0.7329,-0.7311,-0.7267,-0.722,-0.7182,-0.7198,-0.716,-0.7126,-0.7073,-0.704,-0.6997,-0.6932,-0.6879,-0.6853,-0.6799,-0.6764,-0.6766,-0.675,-0.675,-0.6745,-0.6846,-0.6864,-0.6749,-0.6749,-0.6749,-0.6749,-0.6749,-0.6749,-0.7259,-0.7191,-0.7186,-0.7105,-0.7086,-0.7029,-0.7006,-0.6975,-0.6949,-0.6877,-0.6834,-0.6819,-0.6787,-0.6732,-0.6683,-0.6676,-0.6655,-0.6636,-0.6631,-0.6725,-0.6738,-0.6749,-0.6766,-0.6632,-0.6632,-0.6533,-0.6532,-0.6531]}]]